Location: Lancaster
(54.0470°N, 2.8020°W)
Time: 01:55:29
(UTC+00:00)

COSMOS 2428 - Visible Passes

Search period start: 01 November 2014 00:00
Search period end: 11 November 2014 00:00
Orbit: 842 x 859 km, 71.0° (Epoch: 31 October)

Date Brightness Start Highest point End Pass type
(mag) Time Alt. Az. Time Alt. Az. Time Alt. Az.
01 Nov 4.6 18:44:22 10° W 18:48:58 24° NNW 18:53:37 10° NNE visible
01 Nov 5.0 20:32:16 10° NW 20:35:25 15° N 20:36:26 14° N visible
01 Nov 5.5 22:17:57 10° NNW 22:18:25 12° NNW 22:18:25 12° NNW visible
02 Nov 4.6 18:32:05 10° W 18:36:42 24° NNW 18:41:20 10° NNE visible
02 Nov 5.0 20:19:59 10° NW 20:23:08 15° N 20:24:19 14° N visible
02 Nov 5.5 22:05:40 10° NNW 22:06:18 12° NNW 22:06:18 12° NNW visible
03 Nov 4.6 18:19:48 10° W 18:24:25 24° NNW 18:29:03 10° NNE visible
03 Nov 5.0 20:07:42 10° NW 20:10:51 15° N 20:12:12 14° NNE visible
03 Nov 5.4 21:53:23 10° NNW 21:54:11 13° NNW 21:54:11 13° NNW visible
04 Nov 4.6 18:07:31 10° W 18:12:08 24° NNW 18:16:46 10° NNE visible
04 Nov 4.9 19:55:25 10° NW 19:58:34 15° N 20:00:05 14° NNE visible
04 Nov 5.4 21:41:07 10° NNW 21:42:04 13° NNW 21:42:04 13° NNW visible
05 Nov 4.5 17:55:13 10° W 17:59:51 24° NNW 18:04:29 10° NNE visible
05 Nov 4.9 19:43:08 10° NW 19:46:17 15° N 19:47:58 13° NNE visible
05 Nov 5.3 21:28:50 10° NNW 21:29:57 14° NNW 21:29:57 14° NNW visible
06 Nov 4.5 17:42:56 10° W 17:47:34 24° NNW 17:52:12 10° NNE visible
06 Nov 4.9 19:30:51 10° NW 19:34:00 15° N 19:35:51 13° NNE visible
06 Nov 5.2 21:16:33 10° NNW 21:17:51 14° N 21:17:51 14° N visible
07 Nov 4.5 17:30:39 10° W 17:35:16 24° NNW 17:39:55 10° NNE visible
07 Nov 4.9 19:18:34 10° NW 19:21:43 15° N 19:23:45 13° NNE visible
07 Nov 5.2 21:04:16 10° NNW 21:05:44 15° N 21:05:44 15° N visible
08 Nov 4.5 17:18:22 10° W 17:22:59 24° NNW 17:27:38 10° NNE visible
08 Nov 4.9 19:06:17 10° NW 19:09:26 15° N 19:11:38 12° NNE visible
08 Nov 5.1 20:51:58 10° NNW 20:53:38 15° N 20:53:38 15° N visible
09 Nov 4.5 17:06:04 10° W 17:10:42 24° NNW 17:15:21 10° NNE visible
09 Nov 4.8 18:53:59 10° NW 18:57:09 15° N 18:59:32 12° NNE visible
09 Nov 5.0 20:39:41 10° NNW 20:41:32 16° N 20:41:32 16° N visible
10 Nov 4.4 16:53:47 10° W 16:58:25 24° NNW 17:03:04 10° NNE visible
10 Nov 4.8 18:41:42 10° NW 18:44:51 15° N 18:47:27 11° NNE visible
10 Nov 4.9 20:27:24 10° NNW 20:29:26 16° N 20:29:26 16° N visible
